TIME,DELAY(SENSOR),PRES,T(CTD),SAL,OXYGEN,RAWTEMP,T(OPTODE),TCPHASE,FLUOR,BETA(BETA700),BETA(BETA412),BETA(BETA440),CDOM,C(CSC),ED(ED411.90),ED(ED443.80),ED(ED489.40),ED(ED554.70),LU(LU412.20),LU(LU443.80),LU(LU489.40),LU(LU555.00),COMP,TILTX,TILTX(TILTY),CHECK
1340725291,5805,496.3900146484375000,16.0678005218505860,36.1930999755859400,215.3007049560547000,233.1920928955078000,16.0723991394042970,33.3906707763671900,50,107,100,80,69,15405,2147479277,2147770112,2147565092,2147803072,2147311030,2147472914,2147719817,2148239515,1269,7,13,48258
1340725424,5801,486.2200012207031000,16.1592006683349600,36.2118988037109400,217.4653015136718800,230.5131072998047000,16.1538600921630860,33.2359580993652340,50,108,101,80,69,15406,2147480877,2147770468,2147565915,2147800877,2147310948,2147473170,2147722194,2148236141,2085,7,13,17413
1340725595,5801,474.0499877929687500,16.3159999847412100,36.2435989379882800,219.3831939697265600,225.2434997558593800,16.3140697479248050,33.0589408874511700,50,107,100,79,69,15405,2147477440,2147767643,2147563035,2147799396,2147313645,2147472356,2147719451,2148246253,1984,6,13,51882
1340725719,5805,462.9899902343750000,16.4319992065429700,36.2644996643066400,219.5731048583984400,221.4248962402343800,16.4301700592041000,32.9951515197753900,50,108,99,80,68,15408,2147482185,2147770614,2147562422,2147800621,2147314989,2147470354,2147716873,2148250377,2908,7,13,21358
1340725846,5803,451.7799987792969000,16.5744991302490230,36.2929000854492200,222.3491973876953000,216.8276977539062500,16.5699501037597660,32.7852592468261700,50,108,101,80,67,15406,2147481170,2147770358,2147561499,2147799469,2147314377,2147473837,2147716964,2148245942,3462,6,13,23339
1340725975,5802,440.7500000000000000,16.7283000946044920,36.3240013122558600,226.2738037109375000,211.7617034912109400,16.7239894866943360,32.5124588012695300,50,107,101,80,68,15402,2147483026,2147768621,2147561883,2147801033,2147315849,2147476973,2147720036,2148246738,623,7,13,4998
1340726114,5803,429.3699951171875000,16.8145999908447270,36.3408012390136700,226.8419952392578000,208.9098052978515600,16.8107204437255860,32.4441108703613300,50,108,101,80,68,15389,2147480777,2147768338,2147559396,2147800886,2147317147,2147476571,2147719698,2148246400,1305,7,13,40370
1340726243,5803,418.9500122070312500,16.9500007629394530,36.3689002990722660,228.2165069580078000,204.4145965576172000,16.9474201202392580,32.3123092651367200,50,107,100,80,66,15401,2147481371,2147770230,2147562523,2147798409,2147311789,2147477220,2147714331,2148247286,1275,7,13,63054
1340726370,5802,408.7300109863281000,17.0781002044677730,36.3931007385253900,230.9792022705078000,200.2015991210937500,17.0755500793457030,32.1164398193359400,50,110,100,81,67,15402,2147480420,2147766134,2147562395,2147798080,2147314797,2147476891,2147713828,2148246317,1884,7,13,45104
1340726511,5803,397.2600097656250000,17.1823997497558600,36.4127006530761700,232.1376037597656200,196.5381011962890600,17.1869907379150400,32.0086784362793000,50,108,101,80,68,15400,2147482770,2147766957,2147561216,2147797184,2147313526,2147475264,2147711808,2148244827,1630,7,13,20921
1340726638,5801,386.6900024414062500,17.2775001525878900,36.4300994873046900,233.0787963867187500,193.7577972412109400,17.2715606689453120,31.9245395660400400,50,109,100,80,66,15400,2147481481,2147768228,2147562907,2147795300,2147317449,2147477878,2147715053,2148240704,2900,7,13,5233
1340726777,5802,374.9299926757812500,17.3369007110595700,36.4420013427734400,233.5390930175781200,191.6853027343750000,17.3346099853515620,31.8737792968750000,50,111,99,81,67,15399,2147484123,2147765842,2147560137,2147798473,2147317248,2147476434,2147714486,2148244772,3426,7,13,25674
1340726906,5805,364.0199890136719000,17.4202003479003900,36.4578018188476560,235.1614074707031200,188.9096069335937500,17.4190597534179700,31.7571792602539060,50,110,102,79,68,15400,2147482020,2147764626,2147559387,2147795419,2147313947,2147479149,2147715977,2148246436,400,7,13,55642
1340727033,5804,353.3200073242187500,17.4955005645751950,36.4693984985351560,234.6979064941406200,186.5496978759765600,17.4908695220947270,31.7475395202636720,50,112,101,81,66,15390,2147481252,2147765504,2147557613,2147793819,2147314971,2147479890,2147710848,2148244516,711,7,13,18581
1340727162,5804,342.5299987792969000,17.5536003112792970,36.4784011840820300,234.6089019775390600,184.5361938476562500,17.5521392822265620,31.7243995666503900,50,112,100,80,68,15390,2147488557,2147764470,2147560996,2147792777,2147314230,2147479204,2147713106,2148244653,1200,7,13,64787
1340727301,5804,331.2699890136719000,17.6464996337890620,36.4902000427246100,233.9976043701172000,181.5330963134765600,17.6435298919677730,31.7134704589843750,50,112,101,81,67,15392,2147483812,2147764388,2147558509,2147792557,2147317083,2147478189,2147712777,2148244297,2085,7,13,11938
1340727442,5803,320.0400085449219000,17.7292995452880860,36.5080986022949200,234.7229003906250000,178.8121948242187500,17.7263507843017580,31.6414299011230470,50,110,101,80,67,15389,2147486592,2147766710,2147559168,2147796333,2147317248,2147476205,2147708534,2148244342,2326,7,13,15742
1340727569,5800,309.8699951171875000,17.7887992858886720,36.5085983276367200,234.0323944091797000,176.6996002197265600,17.7906608581542970,31.6463909149169920,50,114,101,81,67,15388,2147483456,2147762075,2147561938,2147795556,2147311762,2147476288,2147706532,2148240694,3345,7,13,31334
1340727708,5805,298.8800048828125000,17.8384990692138670,36.5098991394043000,232.7416992187500000,175.2684020996093800,17.8342208862304700,31.6896190643310550,50,115,102,81,68,15387,2147485522,2147765174,2147561773,2147793152,2147314870,2147474578,2147712530,2148240018,700,7,13,36685
1340727842,5804,286.7200012207031000,17.9531993865966800,36.5204010009765600,231.3401031494140600,170.8063049316406200,17.9700794219970700,31.6978492736816400,50,114,101,81,67,15385,2147486436,2147764598,2147566427,2147794294,2147315282,2147479058,2147712822,2148241801,781,7,13,63551
1340727945,5805,276.1900024414062500,18.1144008636474600,36.5531005859375000,232.2236022949218800,166.1687927246093800,18.1113090515136720,31.5919208526611330,50,113,102,80,68,15263,2147488128,2147765897,2147566272,2147791990,2147316662,2147480795,2147712548,2148244105,871,7,13,23046
1340728060,5798,264.5100097656250000,18.1769008636474600,36.5466003417968750,230.9358978271484400,164.0166931152343800,18.1768608093261720,31.6256504058837900,51,114,102,79,66,15382,2147484333,2147763584,2147567524,2147793545,2147300763,2147481334,2147710802,2148240228,1567,7,12,28624
1340728165,5799,254.0200042724609400,18.3435993194580080,36.5606002807617200,229.4709014892578000,157.7854003906250000,18.3666992187500000,31.6141300201416000,50,114,102,82,68,15385,2147484644,2147767716,2147570934,2147795894,2147314276,2147480996,2147715593,2148240923,1920,7,13,40702
1340728280,5804,242.7599945068359400,18.5753993988037100,36.6031990051269500,227.9819030761718800,151.0359954833984400,18.5723991394042970,31.5969200134277340,50,113,101,81,67,15359,2147485741,2147768109,2147578176,2147792320,2147314240,2147479616,2147719506,2148240173,3107,7,12,37667
1340728395,5805,231.6000061035156200,18.7126007080078120,36.6128997802734400,227.5388946533203000,146.4253997802734400,18.7129802703857420,31.5571403503417970,50,115,101,81,68,15387,2147488804,2147772388,2147583734,2147795593,2147308333,2147484461,2147720420,2148235995,3085,7,12,10029
1340728512,5803,220.8699951171875000,18.8603000640869140,36.6174011230468750,227.3984985351562500,141.7225952148437500,18.8564090728759770,31.5009803771972660,52,114,101,81,67,15384,2147489298,2147780041,2147606354,2147793974,2147314642,2147491748,2147737298,2148240603,3376,8,13,60142
1340728639,5804,210.2500000000000000,19.0091991424560550,36.6150016784668000,230.2185974121093800,136.8258972167968800,19.0058097839355470,31.2966194152832030,52,117,100,81,67,15378,2147493010,2147780608,2147601810,2147789897,2147315867,2147488640,2147733394,2148238217,186,8,12,34835
1340728780,5804,199.6199951171875000,19.2117004394531250,36.6078987121582000,241.3204956054687500,130.4291992187500000,19.2010593414306640,30.6850395202636720,50,112,103,82,64,15388,2147494811,2147782006,2147609270,2147790948,2147300205,2147493997,2147736045,2148239606,440,8,13,40862
1340728835,5801,195.4900054931640600,19.2217006683349600,36.6059989929199200,245.7962036132812500,129.9210968017578000,19.2165699005126950,30.4742202758789060,51,115,102,82,64,15383,2147495643,2147785554,2147620534,2147789778,2147307218,2147496118,2147742829,2148239597,627,7,13,28689
1340728890,5804,191.3200073242187500,19.2304992675781250,36.5998992919921900,247.8746032714843800,129.3719024658203000,19.2333393096923830,30.3736991882324220,52,115,101,81,64,15384,2147498752,2147787565,2147627721,2147790253,2147302893,2147499968,2147741321,2148237705,1055,8,12,14607
1340728945,5803,187.0500030517578000,19.2847995758056640,36.5994987487793000,250.2174072265625000,127.8354034423828100,19.2802600860595700,30.2497501373291000,52,115,102,82,65,15384,2147493549,2147778989,2147604763,2147790820,2147301275,2147490285,2147733659,2148236562,1697,7,12,32871
1340729000,5805,182.7200012207031200,19.2999000549316400,36.5970993041992200,251.4109039306640600,127.2880020141601600,19.2969799041748050,30.1899604797363280,54,115,102,81,65,15382,2147493769,2147771584,2147585115,2147791305,2147318381,2147489581,2147721764,2148238592,2109,7,12,290
1340729074,5802,177.0700073242187500,19.3122005462646500,36.5900993347168000,252.6636047363281200,126.8740997314453100,19.3096199035644530,30.1297607421875000,53,118,101,82,63,15383,2147495707,2147783085,2147608758,2147790646,2147307785,2147496365,2147734866,2148238153,2602,7,12,23362
1340729129,5799,173.2400054931640600,19.3164005279541000,36.5868988037109400,253.9364013671875000,126.7400970458984400,19.3137092590332030,30.0726604461669920,55,116,101,81,63,15379,2147497581,2147776292,2147592978,2147789129,2147312009,2147490797,2147730313,2148238235,3243,7,12,12637
1340729196,5805,168.5399932861328000,19.3304996490478500,36.5845985412597660,255.2953033447265600,126.2953033447265600,19.3272991180419920,30.0082893371582030,57,122,101,81,63,15358,2147500617,2147795035,2147645705,2147786221,2147317156,2147502016,2147758281,2148239579,3430,7,12,50884
1340729251,5803,164.5800018310547000,19.3344001770019530,36.5819015502929700,256.2974853515625000,126.1271972656250000,19.3324298858642580,29.9629402160644530,58,122,103,83,63,15368,2147502948,2147806765,2147673078,2147788982,2147302866,2147512219,2147772900,2148240365,314,7,12,17924
1340729306,5805,160.7100067138672000,19.3484992980957030,36.5836982727050800,256.9410095214844000,125.5022964477539000,19.3515090942382800,29.9274997711181640,63,123,102,83,64,15365,2147509540,2147831744,2147725430,2147792704,2147315565,2147524251,2147808018,2148243510,309,7,12,39269
1340729384,5805,155.6499938964843800,19.3547000885009770,36.5814018249511700,257.6376953125000000,125.4682006835937500,19.3525600433349600,29.8972797393798830,70,125,103,82,63,15355,2147509339,2147847076,2147759698,2147789613,2147313974,2147536384,2147826569,2148244836,441,7,12,17445
1340729439,5803,152.5700073242187500,19.3642005920410160,36.5811996459960940,257.6601867675781000,125.1826019287109400,19.3612804412841800,29.8925209045410160,73,127,103,83,64,15350,2147513435,2147855533,2147775442,2147790180,2147312822,2147541558,2147831241,2148247021,633,7,13,39257
1340729518,5805,148.2700042724609400,19.3743991851806640,36.5803985595703100,257.5844116210937500,124.6798019409179700,19.3766403198242200,29.8894004821777340,79,127,104,83,63,15347,2147518491,2147869686,2147801892,2147790363,2147317403,2147550326,2147844388,2148246674,753,7,12,13726
1340729585,5804,144.6799926757812500,19.3880004882812500,36.5816993713378900,257.6184997558594000,124.3566970825195300,19.3865108489990230,29.8836803436279300,86,131,105,83,62,15333,2147528932,2147902509,2147871177,2147789659,2147330962,2147570651,2147879177,2148245668,740,7,12,14578
1340729652,5805,141.0700073242187500,19.4034004211425780,36.5800018310546900,257.7676086425781000,123.9582977294921900,19.3986797332763670,29.8722095489501950,96,131,104,83,64,15331,2147528950,2147888640,2147844836,2147788918,2147325942,2147559990,2147858806,2148246390,689,7,12,8508
1340729721,5804,137.3800048828125000,19.4157009124755860,36.5802001953125000,258.0162048339844000,123.4591979980468800,19.4139308929443360,29.8550205230712900,100,135,103,83,64,15306,2147540617,2147925357,2147911597,2147790354,2147330825,2147571858,2147890468,2148247222,714,7,13,62013
1340729800,5804,133.2100067138672000,19.4272003173828120,36.5782012939453100,258.3507080078125000,123.0689010620117200,19.4258499145507800,29.8358592987060550,108,136,103,83,66,15323,2147543853,2147926409,2147900096,2147792886,2147334253,2147572251,2147878418,2148245293,781,7,13,62853
1340729879,5804,129.1999969482422000,19.4426002502441400,36.5819015502929700,258.2954101562500000,122.5227966308593800,19.4425392150878900,29.8312702178955080,111,136,103,84,64,15307,2147556160,2147963657,2147972745,2147789376,2147338221,2147590930,2147912521,2148250825,844,7,12,52517
1340729958,5805,125.3099975585937500,19.4776992797851560,36.5852012634277340,258.3781127929687500,121.4974975585937500,19.4738597869873050,29.8146305084228500,115,132,103,83,64,15295,2147581421,2148029586,2148086628,2147792850,2147342409,2147617142,2147961682,2148252123,986,7,12,3297
1340730039,5803,121.5299987792968800,19.4944992065429700,36.5871009826660160,258.9050903320312500,120.9617004394531200,19.4902305603027340,29.7854003906250000,122,134,104,83,64,15308,2147577316,2148014070,2148059620,2147792466,2147347044,2147609398,2147940498,2148251712,975,7,12,48718
1340730130,5805,117.5000000000000000,19.5156993865966800,36.5895004272460940,259.5390014648437500,120.2825012207031200,19.5109901428222660,29.7496700286865230,128,136,106,81,65,15253,2147571520,2147975862,2147956324,2147793408,2147333357,2147582573,2147883428,2148251254,715,7,13,23901
1340730221,5803,113.5599975585937500,19.5510005950927730,36.5932006835937500,260.2337036132812500,119.1418991088867200,19.5458507537841800,29.7058296203613280,133,135,103,83,63,15291,2147604864,2148052982,2148084114,2147793910,2147348352,2147613202,2147937545,2148252781,718,7,13,52142
1340730312,5802,109.6500015258789000,19.5699996948242200,36.5942993164062500,261.2036132812500000,118.3580017089843800,19.5697994232177730,29.6551895141601560,134,136,104,84,64,15291,2147641563,2148138011,2148209344,2147796361,2147368128,2147646107,2147984932,2148258816,539,7,13,3191
1340730405,5804,105.5400009155273400,19.6128997802734380,36.5988998413085940,263.1467895507812500,117.1162033081054700,19.6077594757080080,29.5583591461181640,142,139,105,84,66,15272,2147694098,2148247140,2148369435,2147799387,2147388617,2147687012,2148052196,2148263862,177,7,13,6505
1340730496,5802,101.2300033569336000,19.6455001831054700,36.6021003723144500,265.0504150390625000,116.0242004394531200,19.6411399841308600,29.4657802581787100,138,139,106,84,67,15256,2147749522,2148357494,2148507483,2147804068,2147401609,2147722669,2148099620,2148269330,92,7,12,38742
1340730551,5806,98.4599990844726600,19.6844997406005860,36.6024017333984400,266.5888061523437500,114.6192016601562500,19.6840991973876950,29.3850097656250000,130,137,105,84,66,15263,2147934409,2148748233,2149105910,2147812617,2147468992,2147886308,2148346514,2148289764,3586,7,12,37084
1340730606,5803,95.6600036621093800,19.7271003723144530,36.6055984497070300,268.0483093261719000,113.4157028198242200,19.7208900451660160,29.3102092742919920,129,134,106,84,67,15256,2148212196,2149347264,2149990573,2147833810,2147572050,2148115748,2148703213,2148323190,3279,7,13,29822
1340730661,5804,92.9199981689453100,19.7439002990722660,36.6072006225585940,269.3714904785156000,112.7814025878906200,19.7402896881103500,29.2487297058105470,118,135,103,84,65,15246,2148027401,2148906404,2149256539,2147820370,2147503972,2147939867,2148410742,2148297408,2758,7,13,39650
1340730718,5802,90.0400009155273400,19.7779998779296880,36.6085014343261700,270.3471984863281000,111.6538009643554700,19.7747707366943360,29.1952705383300780,114,136,106,85,65,15113,2147994084,2148802642,2149064530,2147817892,2147494180,2147900443,2148329161,2148292754,2760,7,13,35951
1340730773,5803,87.4400024414062500,19.8017997741699220,36.6030998229980500,271.3895874023437500,110.9095001220703100,19.7975406646728500,29.1439800262451170,110,135,105,85,64,15186,2148043300,2148864082,2149118052,2147822628,2147509513,2147931730,2148359570,2148296310,2910,6,13,24640
1340730828,5803,85.0699996948242200,19.8145008087158200,36.6015014648437500,272.0942077636719000,110.4710006713867200,19.8109493255615230,29.1103401184082030,113,137,106,85,65,15243,2148356516,2149439478,2149880996,2147843090,2147630244,2148166336,2148693110,2148330752,3011,7,13,5311
1340730883,5802,82.9000015258789000,19.8304996490478500,36.6015014648437500,272.7033081054687500,109.8681030273437500,19.8293895721435550,29.0786895751953120,109,138,108,85,62,15241,2148431808,2149541165,2149966774,2147849088,2147663296,2148215762,2148739483,2148337910,2984,7,13,13573
1340730938,5804,80.8300018310546900,19.9169006347656250,36.6039009094238300,273.6787109375000000,107.3394012451171900,19.9067497253417970,29.0081806182861330,106,139,105,84,63,15210,2148313737,2149275995,2149541284,2147838948,2147619291,2148116306,2148564461,2148319076,2618,7,13,41942
1340730993,5802,78.8600006103515600,19.9566993713378900,36.6080017089843750,274.9710083007812500,105.9972991943359400,19.9478206634521500,28.9403800964355470,101,141,106,85,62,14918,2148556150,2149673161,2150011510,2147853970,2147721188,2148290093,2148781348,2148338102,2285,7,13,50091
1340731050,5802,76.7900009155273400,20.0030994415283200,36.6035003662109400,276.0273132324219000,104.5134963989257800,19.9932308197021500,28.8801708221435550,103,141,107,87,62,15237,2149353033,2151015314,2151697910,2147918107,2148030601,2148879734,2149540288,2148413065,2156,7,13,43539
1340731105,5804,74.7600021362304700,20.0149993896484380,36.6016998291015600,277.0101928710937500,104.0102005004882800,20.0086307525634770,28.8356609344482420,102,144,107,87,64,15204,2149959250,2151984941,2152857024,2147964443,2148282267,2149317211,2150075072,2148475574,1841,7,13,60522
1340731160,5804,72.7300033569336000,20.1117000579834000,36.6049995422363300,277.2934875488281000,101.2287979125976600,20.0937690734863280,28.7896709442138670,105,141,110,86,62,15197,2150550848,2152908827,2153950948,2148017426,2148530377,2149762240,2150604379,2148531419,1649,7,13,37631
1340731215,5802,70.8399963378906200,20.1706008911132800,36.6085014343261700,277.8315124511719000,99.4138488769531200,20.1493492126464840,28.7461299896240230,99,143,108,88,62,15178,2151324480,2154117403,2155400996,2148091556,2148858038,2150344475,2151303588,2148603666,1590,7,13,53672
1340731270,5804,69.3000030517578100,20.2380008697509770,36.6127014160156250,278.5820007324219000,97.1080932617187500,20.2199592590332030,28.6882705688476560,97,143,108,87,63,15135,2152119680,2155366043,2156903606,2148167094,2149220708,2150956745,2152048274,2148683940,1762,7,13,46751
1340731368,5802,67.2799987792968800,20.2635002136230470,36.6142997741699200,279.9471130371094000,95.8634872436523400,20.2580890655517580,28.6201591491699220,93,143,108,85,62,15145,2154321426,2158664091,2160770541,2148386532,2150187236,2152567597,2153909705,2148881280,1345,7,13,10720
1340731447,5804,64.9100036621093800,20.2999000549316400,36.6142005920410160,280.5280151367187500,94.5252838134765600,20.2990798950195300,28.5812702178955080,93,143,107,86,62,15199,2156226322,2161191085,2163433179,2148555913,2151094445,2153923245,2155325037,2149043510,1175,7,13,39146
1340731502,5802,63.2700004577636700,20.4249000549316400,36.6170005798339840,280.9486083984375000,90.8284912109375000,20.4123706817626950,28.5190391540527340,88,145,107,90,60,14931,2157858212,2163329746,2165673216,2148716553,2151871542,2155074925,2156507410,2149177088,1188,7,13,17346
1340731581,5801,61.0200004577636700,20.5387992858886720,36.6212005615234400,281.2312011718750000,87.1683883666992200,20.5245800018310550,28.4626598358154300,89,144,111,87,61,15194,2160097206,2166199515,2168695213,2148977142,2153028800,2156753508,2158225810,2149378194,1650,7,13,50328
1340731648,5804,59.1500015258789060,20.6795005798339840,36.6286010742187500,281.2060852050781000,82.8527908325195300,20.6569499969482420,28.4099693298339840,86,144,111,94,60,15104,2161771136,2168258953,2170829952,2149181248,2153921892,2158004260,2159453522,2149526875,1963,7,13,64891
1340731726,5799,56.6300010681152340,20.8313007354736330,36.6389007568359400,280.8893127441406000,77.7748031616211000,20.8127899169921880,28.3589992523193360,82,147,110,87,60,15169,2163589385,2170146203,2172562788,2149477796,2155042651,2159385828,2160659620,2149697124,2060,7,13,27339
1340731781,5805,54.3400001525878900,20.8892002105712900,36.6282005310058600,281.0228881835937500,75.6027984619140600,20.8794803619384770,28.3269805908203120,80,144,110,87,59,15177,2165473042,2172094528,2174385728,2149775460,2156178532,2160764928,2161854921,2149866880,2332,7,12,58400
1340731922,5805,50.1800003051757800,21.1476001739501950,36.6269989013671900,280.8541870117187500,67.2357711791992200,21.1365509033203120,28.2299499511718750,77,145,111,88,61,15093,2166962688,2173014966,2174778761,2150078646,2157553444,2162074084,2162657517,2150018779,758,7,13,63697
1340731956,5805,49.2799987792968750,21.1973991394042970,36.6263008117675800,280.7235107421875000,65.7674407958984400,21.1816997528076170,28.2168693542480470,77,143,109,88,60,14927,2166902363,2172645814,2174238299,2150107181,2157657526,2162043209,2162494363,2150013933,601,7,12,39765
1340732035,5804,47.1599998474121100,21.3831005096435550,36.6059989929199200,279.9937133789062500,59.7980308532714840,21.3653202056884770,28.1707992553710940,75,145,111,88,61,14695,2167073956,2172280804,2173546505,2150259382,2158178523,2162363812,2162480274,2150052361,377,8,12,6845
1340732080,5806,45.4799995422363300,21.4167995452880860,36.5905990600585940,279.8276977539062500,58.5152893066406250,21.4047908782959000,28.1614208221435550,75,146,111,89,59,14930,2169887634,2175402669,2176797577,2150843200,2160091684,2164640228,2164539913,2150372608,676,8,12,44431
1340732125,5800,43.7000007629394500,21.4598007202148440,36.5752983093261700,279.6405944824219000,57.0396804809570300,21.4502105712890620,28.1503295898437500,74,145,109,87,60,14932,2172571382,2178334902,2179805046,2151351689,2162098989,2167020598,2166673664,2150674788,1127,7,13,61215
1340732182,5801,41.5000000000000000,21.5009002685546880,36.5694999694824200,279.5324096679687500,55.2677497863769500,21.5047702789306640,28.1326007843017580,73,146,111,89,59,15091,2175769782,2181612306,2183051492,2152075328,2164580041,2169787876,2169044763,2151065289,1334,6,13,57983
1340732227,5804,39.8300018310546900,21.5384006500244140,36.5660018920898440,279.2813110351562500,54.0412597656250000,21.5425395965576170,28.1271400451660160,72,145,109,89,59,15119,2178180004,2183861037,2185223616,2152741302,2166522614,2171781129,2170643510,2151376137,1392,8,12,54297
1340732284,5802,37.8499984741210940,21.6275005340576170,36.5617980957031250,278.8150024414062500,51.4207801818847660,21.6232604980468750,28.1126594543457030,71,148,109,88,61,15110,2180148370,2185502957,2186600082,2153258642,2168495232,2173771218,2172181092,2151646345,1605,7,12,51985
1340732351,5804,35.4000015258789060,21.9358997344970700,36.5978012084960940,276.7450866699219000,39.6713790893554700,21.9855709075927730,28.0473594665527340,71,146,111,89,59,15149,2185251126,2190407414,2191477952,2154680091,2172796589,2178169042,2175762166,2152337682,1260,8,12,24903
1340732396,5805,33.4799995422363300,22.2828006744384770,36.5876998901367200,275.7810058593750000,31.9343700408935550,22.2245101928710940,27.9896507263183600,68,145,109,88,60,14886,2187432201,2192457316,2193474011,2155437266,2175081837,2180425673,2177547894,2152697700,1717,8,13,46304